DW4075 Weather Reports


Display with metric or nautical units.
time (UTC)temp
F
wind
direction
speed
MPH
gust
MPH
rain 1hr
in
rain 24hr
in
rain mn
in
humidity
%
barometer
mb
20240304084103 37 244 3.0 6.0 0.00 0.00 0.00 49 1005.9
20240304083605 38 244 3.0 6.0 0.00 0.00 0.00 48 1005.9
20240304083103 38 244 3.0 7.0 0.00 0.00 0.00 47 1006.1
20240304082601 38 244 3.0 7.0 0.00 0.00 0.00 47 1006.3
20240304082320 38 244 3.0 6.0 0.00 0.00 0.00 46 1006.4
20240304081602 39 244 4.0 7.0 0.00 0.00 0.00 46 1006.4
20240304081326 39 244 4.0 8.0 0.00 0.00 0.00 45 1006.5
20240304080606 39 245 5.0 8.0 0.00 0.00 0.00 45 1006.4
20240304080103 39 245 4.0 8.0 0.00 0.00 0.00 45 1006.4
20240304075602 39 245 4.0 7.0 0.00 0.00 0.00 45 1006.5
20240304075329 39 245 4.0 7.0 0.00 0.00 0.00 44 1006.4
20240304074601 40 219 3.0 6.0 0.00 0.00 0.00 43 1006.6
20240304074101 40 218 3.0 5.0 0.00 0.00 0.00 43 1006.9
20240304073601 41 219 2.0 6.0 0.00 0.00 0.00 42 1007.1
20240304073102 41 218 3.0 6.0 0.00 0.00 0.00 42 1007.4
20240304072601 42 218 2.0 6.0 0.00 0.00 0.00 42 1007.6
20240304072101 42 218 2.0 6.0 0.00 0.00 0.00 41 1008.0
20240304071815 43 218 3.0 6.0 0.00 0.00 0.00 40 1008.1
20240304071044 43 218 3.0 9.0 0.00 0.00 0.00 40 1008.2
20240304070802 44 218 3.0 9.0 0.00 0.00 0.00 40 1008.3
20240304070257 44 232 3.0 8.0 0.00 0.00 0.00 39 1008.3
20240304065530 44 223 4.0 6.0 0.00 0.00 0.00 39 1008.3
20240304065153 44 223 4.0 8.0 0.00 0.00 0.00 38 1008.4
20240304065148 44 236 4.0 10.0 0.00 0.00 0.00 38 1008.3
20240304064027 44 225 4.0 10.0 0.00 0.00 0.00 38 1008.2
20240304063525 44 229 4.0 10.0 0.00 0.00 0.00 37 1008.3
20240304063243 45 229 3.0 10.0 0.00 0.00 0.00 37 1008.3
20240304062520 45 228 3.0 11.0 0.00 0.00 0.00 35 1008.3
20240304062017 46 227 4.0 11.0 0.00 0.00 0.00 35 1008.6
20240304061506 46 244 4.0 10.0 0.00 0.00 0.00 34 1008.7
20240304061006 47 223 5.0 12.0 0.00 0.00 0.00 33 1008.9
20240304060507 47 235 7.0 14.0 0.00 0.00 0.00 32 1009.1
20240304060006 47 201 8.0 14.0 0.00 0.00 0.00 32 1009.1
20240304055503 47 273 8.0 19.0 0.00 0.00 0.00 32 1008.9
20240304055002 47 250 8.0 19.0 0.00 0.00 0.00 33 1009.1
20240304054503 47 235 8.0 18.0 0.00 0.00 0.00 32 1008.8
20240304054006 47 251 8.0 15.0 0.00 0.00 0.00 33 1009.1
20240304053721 48 267 8.0 14.0 0.00 0.00 0.00 33 1009.2
20240304053003 48 261 8.0 13.0 0.00 0.00 0.00 34 1009.2
20240304052503 47 247 7.0 15.0 0.00 0.00 0.00 34 1009.2
20240304051952 47 234 7.0 16.0 0.00 0.00 0.00 34 1009.1
20240304051451 47 265 6.0 16.0 0.00 0.00 0.00 35 1009.1
20240304050947 47 257 6.0 12.0 0.00 0.00 0.00 35 1008.9
20240304050445 47 259 6.0 13.0 0.00 0.00 0.00 35 1008.7
20240304050207 46 270 6.0 13.0 0.00 0.00 0.00 36 1008.7
20240304045700 46 271 6.0 13.0 0.00 0.00 0.00 37 1008.4
20240304045156 45 273 5.0 13.0 0.00 0.00 0.00 37 1008.2
20240304044434 44 229 4.0 12.0 0.00 0.00 0.00 38 1007.5
20240304044157 43 223 2.0 6.0 0.00 0.00 0.00 38 1007.2
20240304043437 43 223 2.0 6.0 0.00 0.00 0.00 38 1007.2
20240304042931 44 223 2.0 6.0 0.00 0.00 0.00 38 1007.5
20240304042431 44 223 2.0 6.0 0.00 0.00 0.00 38 1007.5
20240304041932 44 223 1.0 6.0 0.00 0.00 0.00 38 1007.6
20240304041431 44 222 1.0 5.0 0.00 0.00 0.00 38 1007.7
20240304040927 44 222 3.0 8.0 0.00 0.00 0.00 38 1007.7
20240304040650 44 223 3.0 12.0 0.00 0.00 0.00 39 1007.5
20240304035925 44 216 1.0 12.0 0.00 0.00 0.00 39 1007.5
20240304035646 44 93 0.0 2.0 0.00 0.00 0.00 38 1007.6
20240304034911 45 93 1.0 4.0 0.00 0.00 0.00 37 1007.8
20240304034406 46 93 1.0 8.0 0.00 0.00 0.00 36 1008.0
20240304033905 47 93 1.0 8.0 0.00 0.00 0.00 35 1008.3
20240304033403 48 250 0.0 2.0 0.00 0.00 0.00 34 1008.7
20240304032907 49 250 1.0 6.0 0.00 0.00 0.00 34 1009.1
20240304032405 49 250 2.0 8.0 0.00 0.00 0.00 33 1009.2
20240304032126 50 250 2.0 13.0 0.00 0.00 0.00 33 1009.2
20240304031404 50 253 3.0 13.0 0.00 0.00 0.00 32 1009.2
20240304030903 50 244 3.0 9.0 0.00 0.00 0.00 32 1009.3
20240304030403 51 269 5.0 12.0 0.00 0.00 0.00 31 1009.4
20240304025903 51 285 7.0 12.0 0.00 0.00 0.00 31 1009.3
20240304025403 51 271 7.0 12.0 0.00 0.00 0.00 31 1009.3
20240304025124 51 279 8.0 14.0 0.00 0.00 0.00 31 1009.4
20240304024410 51 288 8.0 14.0 0.00 0.00 0.00 30 1009.2
20240304023852 52 290 6.0 13.0 0.00 0.00 0.00 30 1009.2
20240304023345 52 283 7.0 13.0 0.00 0.00 0.00 30 1009.3
20240304022845 52 263 8.0 21.0 0.00 0.00 0.00 29 1009.2
20240304022345 52 277 8.0 21.0 0.00 0.00 0.00 30 1009.3
20240304021847 52 239 6.0 15.0 0.00 0.00 0.00 30 1009.2
20240304021344 52 232 6.0 15.0 0.00 0.00 0.00 29 1009.2
20240304020845 52 250 6.0 13.0 0.00 0.00 0.00 29 1009.1
20240304020342 52 215 5.0 13.0 0.00 0.00 0.00 29 1009.1
20240304015842 53 258 6.0 15.0 0.00 0.00 0.00 28 1009.2
20240304015340 53 250 7.0 15.0 0.00 0.00 0.00 28 1009.2
20240304014838 53 274 7.0 14.0 0.00 0.00 0.00 28 1009.2
20240304014338 53 240 8.0 16.0 0.00 0.00 0.00 27 1009.2
20240304014058 54 244 8.0 16.0 0.00 0.00 0.00 27 1009.2
20240304013331 53 238 7.0 15.0 0.00 0.00 0.00 27 1009.1
20240304012839 54 199 8.0 15.0 0.00 0.00 0.00 27 1009.2
20240304012331 54 198 8.0 19.0 0.00 0.00 0.00 27 1009.1
20240304012057 54 244 7.0 19.0 0.00 0.00 0.00 27 1009.1
20240304011332 54 248 6.0 14.0 0.00 0.00 0.00 27 1008.9
20240304010831 54 217 5.0 12.0 0.00 0.00 0.00 27 1009.1
20240304010559 55 230 7.0 16.0 0.00 0.00 0.00 26 1009.2
20240304010311 55 283 9.0 18.0 0.00 0.00 0.00 26 1009.2
20240304005556 56 230 11.0 31.0 0.00 0.00 0.00 26 1009.3
20240304004831 56 240 11.0 31.0 0.00 0.00 0.00 25 1009.2
20240304004331 56 186 9.0 19.0 0.00 0.00 0.00 25 1009.3
20240304003831 56 271 10.0 25.0 0.00 0.00 0.00 25 1009.4
20240304003554 57 206 13.0 30.0 0.00 0.00 0.00 24 1009.5
20240304002831 57 277 12.0 30.0 0.00 0.00 0.00 24 1009.5
20240304002336 57 227 10.0 21.0 0.00 0.00 0.00 24 1009.5
20240304001831 58 257 10.0 19.0 0.00 0.00 0.00 24 1009.7
20240304001330 58 217 10.0 23.0 0.00 0.00 0.00 24 1009.9
20240304000831 59 220 10.0 23.0 0.00 0.00 0.00 23 1010.0
20240304000333 59 229 11.0 23.0 0.00 0.00 0.00 23 1010.3
20240303235833 60 249 12.0 21.0 0.00 0.00 0.00 23 1010.4
20240303235330 60 249 13.0 23.0 0.00 0.00 0.00 22 1010.5
20240303235057 60 274 11.0 23.0 0.00 0.00 0.00 22 1010.6
20240303234331 61 213 10.0 24.0 0.00 0.00 0.00 22 1010.8
20240303234310 60 249 11.0 24.0 0.00 0.00 0.00 22 1010.6
20240303233326 60 180 12.0 23.0 0.00 0.00 0.00 22 1010.6
20240303233052 60 232 13.0 27.0 0.00 0.00 0.00 22 1010.5
20240303232325 61 248 13.0 27.0 0.00 0.00 0.00 21 1010.8
20240303231823 61 223 12.0 27.0 0.00 0.00 0.00 21 1010.9
20240303231323 61 256 11.0 22.0 0.00 0.00 0.00 21 1011.0
20240303230823 61 252 12.0 25.0 0.00 0.00 0.00 20 1011.1
20240303230326 61 273 14.0 25.0 0.00 0.00 0.00 20 1010.9
20240303225824 61 279 14.0 29.0 0.00 0.00 0.00 20 1011.0
20240303225544 62 262 14.0 29.0 0.00 0.00 0.00 20 1011.1
20240303224820 62 245 12.0 23.0 0.00 0.00 0.00 20 1011.4
20240303224319 62 238 12.0 26.0 0.00 0.00 0.00 20 1011.4
20240303223819 62 0 11.0 26.0 0.00 0.00 0.00 19 1011.4
20240303223548 63 225 11.0 24.0 0.00 0.00 0.00 19 1011.7
20240303222819 62 265 13.0 24.0 0.00 0.00 0.00 19 1011.6
20240303222317 62 239 12.0 23.0 0.00 0.00 0.00 19 1011.6
20240303221811 63 237 12.0 27.0 0.00 0.00 0.00 19 1011.9
20240303221533 63 221 11.0 23.0 0.00 0.00 0.00 19 1011.7
20240303220809 62 261 12.0 26.0 0.00 0.00 0.00 19 1011.5
20240303220536 62 262 15.0 28.0 0.00 0.00 0.00 19 1011.2
20240303215811 62 264 16.0 33.0 0.00 0.00 0.00 18 1011.4
20240303215306 63 232 16.0 33.0 0.00 0.00 0.00 18 1011.6
20240303215025 63 231 12.0 30.0 0.00 0.00 0.00 18 1011.6
20240303214525 63 232 12.0 30.0 0.00 0.00 0.00 19 1011.6
20240303213806 62 269 13.0 30.0 0.00 0.00 0.00 18 1011.6
20240303213302 62 249 12.0 25.0 0.00 0.00 0.00 19 1011.7
20240303212803 62 264 13.0 25.0 0.00 0.00 0.00 19 1011.7
20240303212306 62 240 14.0 28.0 0.00 0.00 0.00 18 1011.7
20240303211802 62 279 14.0 28.0 0.00 0.00 0.00 18 1012.0
20240303211303 63 275 13.0 25.0 0.00 0.00 0.00 18 1012.1
20240303210803 63 239 11.0 25.0 0.00 0.00 0.00 18 1012.5
20240303210330 63 274 12.0 25.0 0.00 0.00 0.00 19 1012.5
20240303205803 62 225 12.0 25.0 0.00 0.00 0.00 18 1012.2
20240303205319 63 226 10.0 23.0 0.00 0.00 0.00 18 1012.6
20240303205049 63 188 10.0 23.0 0.00 0.00 0.00 19 1012.7
20240303204302 63 212 9.0 20.0 0.00 0.00 0.00 19 1012.7
20240303203803 62 242 8.0 20.0 0.00 0.00 0.00 21 1012.6
20240303203303 62 179 10.0 23.0 0.00 0.00 0.00 22 1012.5
20240303202802 61 222 11.0 23.0 0.00 0.00 0.00 21 1012.3
20240303202306 61 173 9.0 19.0 0.00 0.00 0.00 22 1012.6
20240303201805 61 178 8.0 18.0 0.00 0.00 0.00 22 1012.6
20240303201306 60 229 10.0 21.0 0.00 0.00 0.00 22 1012.3
20240303200803 60 180 11.0 21.0 0.00 0.00 0.00 22 1012.5
20240303200303 60 175 10.0 18.0 0.00 0.00 0.00 23 1012.5
20240303195805 60 144 10.0 21.0 0.00 0.00 0.00 23 1012.6
20240303195528 60 207 9.0 21.0 0.00 0.00 0.00 23 1012.6
20240303194803 60 193 8.0 18.0 0.00 0.00 0.00 23 1012.7
20240303194309 59 194 8.0 19.0 0.00 0.00 0.00 25 1012.7
20240303194025 59 223 10.0 27.0 0.00 0.00 0.00 24 1012.7
20240303193302 59 224 10.0 27.0 0.00 0.00 0.00 24 1012.8
20240303192803 59 209 9.0 19.0 0.00 0.00 0.00 24 1013.1
20240303192306 60 240 8.0 19.0 0.00 0.00 0.00 24 1013.3
20240303192250 60 212 8.0 16.0 0.00 0.00 0.00 25 1013.8
20240303191259 59 204 8.0 22.0 0.00 0.00 0.00 24 1013.4
20240303190759 59 217 8.0 22.0 0.00 0.00 0.00 25 1013.4
20240303190258 59 167 7.0 14.0 0.00 0.00 0.00 25 1013.4
20240303185759 58 209 7.0 15.0 0.00 0.00 0.00 26 1013.4
20240303185257 57 192 8.0 18.0 0.00 0.00 0.00 27 1013.2
20240303185016 57 182 8.0 18.0 0.00 0.00 0.00 27 1013.1
20240303184253 56 185 9.0 16.0 0.00 0.00 0.00 26 1013.1
20240303183752 56 191 10.0 22.0 0.00 0.00 0.00 27 1013.1
20240303183252 56 128 10.0 22.0 0.00 0.00 0.00 26 1012.9
20240303182750 56 182 10.0 20.0 0.00 0.00 0.00 27 1013.1
20240303182250 56 213 11.0 20.0 0.00 0.00 0.00 27 1013.1
20240303181750 56 171 10.0 20.0 0.00 0.00 0.00 26 1013.2
20240303181515 57 170 9.0 18.0 0.00 0.00 0.00 27 1013.4
20240303181020 56 227 8.0 16.0 0.00 0.00 0.00 27 1013.6
20240303180252 56 155 8.0 14.0 0.00 0.00 0.00 27 1013.1
20240303175747 55 208 10.0 20.0 0.00 0.00 0.00 28 1012.9
20240303175247 54 242 11.0 20.0 0.00 0.00 0.00 28 1012.6
20240303175004 54 185 10.0 20.0 0.00 0.00 0.00 28 1012.5
20240303174242 54 193 9.0 18.0 0.00 0.00 0.00 28 1012.6
20240303173742 54 181 9.0 18.0 0.00 0.00 0.00 28 1012.6
20240303173242 54 187 10.0 20.0 0.00 0.00 0.00 28 1012.5
20240303172744 53 169 10.0 20.0 0.00 0.00 0.00 27 1012.5
20240303172242 53 188 9.0 20.0 0.00 0.00 0.00 28 1012.2
20240303171745 53 238 9.0 20.0 0.00 0.00 0.00 28 1012.3
20240303171239 53 205 9.0 18.0 0.00 0.00 0.00 28 1012.5
20240303170735 53 173 8.0 19.0 0.00 0.00 0.00 28 1012.2
20240303170237 52 163 8.0 19.0 0.00 0.00 0.00 28 1012.1
20240303165736 52 156 8.0 14.0 0.00 0.00 0.00 29 1011.9
20240303165234 51 167 9.0 16.0 0.00 0.00 0.00 28 1012.1
20240303164734 52 182 8.0 18.0 0.00 0.00 0.00 27 1012.1
20240303164233 52 213 6.0 18.0 0.00 0.00 0.00 27 1012.1
20240303163732 51 187 6.0 13.0 0.00 0.00 0.00 29 1012.3
20240303163232 51 194 7.0 13.0 0.00 0.00 0.00 27 1012.1
20240303162730 51 221 5.0 10.0 0.00 0.00 0.00 28 1012.1
20240303162230 51 191 4.0 11.0 0.00 0.00 0.00 28 1012.1
20240303161954 51 247 5.0 13.0 0.00 0.00 0.00 28 1011.9
20240303161233 50 217 5.0 13.0 0.00 0.00 0.00 28 1012.0
20240303160729 50 209 6.0 10.0 0.00 0.00 0.00 29 1011.9
20240303160227 50 188 6.0 11.0 0.00 0.00 0.00 28 1011.7
20240303155728 50 261 5.0 11.0 0.00 0.00 0.00 28 1011.7
20240303155228 49 178 5.0 10.0 0.00 0.00 0.00 29 1011.7
20240303154726 49 194 6.0 13.0 0.00 0.00 0.00 29 1011.5
20240303154229 49 194 5.0 13.0 0.00 0.00 0.00 30 1011.2
20240303153728 48 183 4.0 9.0 0.00 0.00 0.00 30 1011.2
20240303153449 48 225 4.0 9.0 0.00 0.00 0.00 30 1010.9
20240303152725 47 163 3.0 7.0 0.00 0.00 0.00 30 1010.8
20240303152226 47 160 4.0 8.0 0.00 0.00 0.00 30 1010.5
20240303151725 46 136 4.0 8.0 0.00 0.00 0.00 31 1010.3
20240303151219 45 141 3.0 6.0 0.00 0.00 0.00 31 1009.8
20240303150722 44 150 3.0 6.0 0.00 0.00 0.00 32 1009.3
20240303150217 43 150 3.0 7.0 0.00 0.00 0.00 33 1008.8
20240303145717 42 154 3.0 7.0 0.00 0.00 0.00 35 1008.3
20240303145213 41 155 2.0 6.0 0.00 0.00 0.00 37 1007.6
20240303144712 39 157 1.0 6.0 0.00 0.00 0.00 39 1006.5
20240303144215 37 252 1.0 4.0 0.00 0.00 0.00 42 1005.7
20240303143707 35 253 1.0 4.0 0.00 0.00 0.00 44 1004.6
20240303143428 32 257 1.0 4.0 0.00 0.00 0.00 47 1003.3
20240303142703 30 257 1.0 4.0 0.00 0.00 0.00 50 1002.3
20240303142203 29 257 0.0 4.0 0.00 0.00 0.00 52 1001.6
20240303141705 28 258 0.0 2.0 0.00 0.00 0.00 53 1001.3
20240303141153 28 258 0.0 2.0 0.00 0.00 0.00 53 1001.0
20240303140913 28 258 0.0 2.0 0.00 0.00 0.00 52 1000.8
20240303140131 28 258 1.0 4.0 0.00 0.00 0.00 51 1000.5
20240303135631 28 258 1.0 4.0 0.00 0.00 0.00 51 1000.7
20240303135131 28 258 0.0 0.0 0.00 0.00 0.00 50 1000.5
20240303134623 28 258 0.0 0.0 0.00 0.00 0.00 50 1000.7
20240303134117 28 258 0.0 0.0 0.00 0.00 0.00 50 1000.8
20240303133829 28 258 0.0 0.0 0.00 0.00 0.00 50 1000.8
20240303133109 29 258 0.0 0.0 0.00 0.00 0.00 49 1001.0
20240303132609 29 258 0.0 0.0 0.00 0.00 0.00 48 1001.3
20240303132110 30 258 0.0 2.0 0.00 0.00 0.00 47 1001.8
20240303131608 31 258 0.0 2.0 0.00 0.00 0.00 46 1002.1
20240303131109 32 258 0.0 2.0 0.00 0.00 0.00 44 1002.6
20240303130821 33 258 0.0 0.0 0.00 0.00 0.00 43 1003.0
20240303130104 34 258 0.0 0.0 0.00 0.00 0.00 42 1003.5
20240303125608 35 258 0.0 2.0 0.00 0.00 0.00 42 1003.8
20240303125101 35 258 1.0 4.0 0.00 0.00 0.00 41 1004.1
20240303124809 36 258 1.0 4.0 0.00 0.00 0.00 41 1004.1
20240303124309 36 258 1.0 5.0 0.00 0.00 0.00 40 1004.3
20240303123543 36 258 2.0 6.0 0.00 0.00 0.00 40 1004.2
20240303123041 36 258 3.0 6.0 0.00 0.00 0.00 40 1004.2
20240303123027 36 264 2.0 5.0 0.00 0.00 0.00 41 1004.0
20240303122039 36 267 2.0 6.0 0.00 0.00 0.00 40 1004.1
20240303121535 36 267 3.0 6.0 0.00 0.00 0.00 40 1004.2
20240303121259 36 268 2.0 6.0 0.00 0.00 0.00 40 1004.2
20240303120534 36 268 2.0 5.0 0.00 0.00 0.00 39 1004.2
20240303120256 37 268 2.0 5.0 0.00 0.00 0.00 38 1004.4
20240303115532 37 268 2.0 6.0 0.00 0.00 0.00 38 1004.4
20240303115031 37 268 3.0 7.0 0.00 0.00 0.00 37 1004.7
20240303114531 38 268 4.0 7.0 0.00 0.00 0.00 37 1004.8
20240303114032 38 269 4.0 7.0 0.00 0.00 0.00 36 1004.7
20240303113531 38 268 3.0 7.0 0.00 0.00 0.00 36 1004.8
20240303113031 38 268 4.0 7.0 0.00 0.00 0.00 36 1004.8
20240303112527 38 268 3.0 7.0 0.00 0.00 0.00 35 1004.8
20240303112026 38 267 3.0 6.0 0.00 0.00 0.00 35 1004.8
20240303111527 39 267 4.0 7.0 0.00 0.00 0.00 34 1005.0
20240303111026 39 266 4.0 8.0 0.00 0.00 0.00 34 1004.9
20240303110521 39 257 4.0 8.0 0.00 0.00 0.00 33 1004.9
20240303110015 39 266 4.0 8.0 0.00 0.00 0.00 33 1004.9
20240303105505 39 261 5.0 8.0 0.00 0.00 0.00 32 1004.9
20240303105007 39 279 4.0 8.0 0.00 0.00 0.00 32 1004.9
20240303104503 40 273 4.0 8.0 0.00 0.00 0.00 32 1005.2
20240303104007 40 261 5.0 9.0 0.00 0.00 0.00 31 1005.3
20240303103504 40 270 4.0 9.0 0.00 0.00 0.00 31 1005.4
20240303103003 40 257 4.0 9.0 0.00 0.00 0.00 31 1005.4
20240303102505 40 269 5.0 9.0 0.00 0.00 0.00 31 1005.8
20240303102003 40 258 5.0 9.0 0.00 0.00 0.00 31 1005.8
20240303101504 40 265 5.0 9.0 0.00 0.00 0.00 31 1005.8
20240303101231 40 255 4.0 9.0 0.00 0.00 0.00 31 1005.8
20240303100506 40 266 4.0 8.0 0.00 0.00 0.00 31 1005.7
20240303100003 40 270 3.0 9.0 0.00 0.00 0.00 31 1005.8
20240303095725 41 227 3.0 9.0 0.00 0.00 0.00 30 1005.7
20240303095003 41 254 3.0 8.0 0.00 0.00 0.00 30 1006.0
20240303094503 42 251 3.0 8.0 0.00 0.00 0.00 30 1006.3
20240303094003 42 251 4.0 11.0 0.00 0.00 0.00 29 1006.5
20240303093943 42 244 4.0 11.0 0.00 0.00 0.00 29 1006.6
20240303093003 43 259 6.0 10.0 0.00 0.00 0.00 29 1006.9
20240303092720 43 234 7.0 11.0 0.00 0.00 0.00 29 1006.9
20240303091948 43 261 7.0 18.0 0.00 0.00 0.00 29 1007.0
20240303091448 43 244 7.0 18.0 0.00 0.00 0.00 29 1007.0
20240303090942 43 231 7.0 12.0 0.00 0.00 0.00 29 1007.1
20240303090431 43 232 7.0 12.0 0.00 0.00 0.00 29 1007.1
20240303085931 43 265 7.0 14.0 0.00 0.00 0.00 30 1007.1
20240303085431 43 224 7.0 14.0 0.00 0.00 0.00 29 1007.0
20240303084931 43 256 7.0 13.0 0.00 0.00 0.00 29 1007.1
20240303084431 43 246 7.0 13.0 0.00 0.00 0.00 29 1007.2